Wind_Speed
12 10 9 7 6 4 2 5 10 11 12 11 10 10 10 9 8 9 8 8 7 8 7 6 6 6 7 7 7 8 8 8 8 7 7 7 6 6 6 6 5 5 5 5 5 5 5 4 4
12 11 10 9 7 4 4 9 13 14 14 12 12 12 11 11 10 10 9 9 9 9 9 9 8 9 9 9 9 9 9 9 9 9 9 8 8 7 7 7 6 6 6 6 6 6 6 6 6
13 12 11 10 7 5 8 13 15 18 15 13 13 13 12 12 11 10 9 9 10 10 10 10 11 11 12 11 11 11 11 11 11 11 10 10 9 9 9 8 8 8 8 8 8 8 8 7 7
14 12 11 10 8 7 12 16 18 18 15 15 15 14 14 13 12 11 11 11 11 11 11 11 12 13 13 14 13 13 13 13 13 12 12 12 11 11 10 10 10 10 10 10 9 9 9 9 9
14 13 12 10 8 12 15 18 17 16 15 15 15 16 14 13 12 12 12 12 12 12 12 12 13 13 14 15 15 15 15 15 15 14 14 14 13 12 12 12 12 12 12 11 11 11 11 11 11
15 13 12 10 10 16 17 20 18 15 15 16 16 15 14 13 13 13 13 13 13 13 13 13 14 15 15 16 16 17 17 17 16 16 15 15 14 14 14 13 13 13 13 12 13 13 13 13 13
15 14 12 10 13 18 19 20 19 16 16 16 18 16 15 13 14 15 15 15 14 14 15 15 15 16 17 18 19 18 18 18 18 18 17 17 16 15 15 15 15 15 14 14 14 14 15 15 15
15 15 13 12 16 20 21 21 19 17 16 16 18 17 16 14 15 16 16 16 16 16 16 16 16 17 18 19 20 20 20 20 19 19 19 19 18 17 16 16 16 16 16 16 15 16 16 16 16
15 15 14 13 15 20 22 22 18 17 17 17 18 18 17 16 15 16 17 17 17 17 17 16 17 18 18 19 20 21 21 21 20 20 19 19 19 19 18 18 18 17 17 17 17 17 17 17 17
15 14 12 12 17 20 21 20 18 17 18 20 19 18 16 15 15 16 17 17 18 18 18 17 19 18 19 18 19 20 20 20 20 19 19 19 20 20 19 19 19 19 19 18 18 18 18 18 18
15 15 14 16 21 21 20 19 18 17 18 20 20 18 16 15 16 16 17 18 19 19 19 19 20 19 19 19 20 20 21 21 19 19 20 20 21 20 20 20 20 20 20 20 20 19 19 19 19
16 17 17 19 20 22 21 21 20 18 18 18 19 18 17 17 16 17 18 19 19 19 19 19 20 20 20 21 22 22 22 22 22 21 22 22 22 21 20 20 21 21 21 21 20 20 20 20 21
18 18 19 19 20 19 19 19 18 19 19 17 17 16 16 16 18 18 18 19 19 19 19 19 19 21 20 21 21 22 22 23 22 22 22 23 22 22 22 21 22 22 22 22 22 22 22 22 22
18 18 17 17 17 17 16 18 19 19 20 20 17 17 16 17 17 18 19 19 19 19 19 19 19 20 21 22 23 22 22 23 23 23 23 23 23 23 23 22 23 24 24 23 24 24 24 24 24
18 17 16 17 17 17 17 17 18 18 18 19 18 16 16 16 17 18 19 19 19 20 19 19 19 20 21 23 23 23 23 23 23 23 24 24 24 24 24 24 24 25 25 25 25 25 25 25 25
15 15 16 16 16 15 17 18 19 18 18 18 19 19 18 17 16 17 18 19 20 20 20 20 20 21 22 24 24 24 24 24 25 26 26 26 26 25 25 25 25 25 26 26 26 26 26 26 25
13 13 15 15 15 14 15 18 18 18 16 17 17 18 18 18 18 17 17 18 19 20 20 20 21 21 23 24 25 26 25 25 27 26 26 27 26 25 26 26 26 27 27 28 28 27 26 26 26
12 14 15 16 15 14 15 18 18 19 19 17 18 18 17 18 18 18 18 19 19 20 20 20 21 21 23 24 25 26 26 26 27 27 27 27 27 27 27 27 27 28 29 29 28 28 28 27 27
14 15 15 14 16 15 16 18 18 18 20 19 19 19 19 19 19 19 19 19 19 19 19 20 21 21 23 23 25 26 26 27 28 28 28 28 27 28 28 28 29 29 29 30 29 29 29 28 27
15 16 16 15 17 16 15 18 18 19 19 19 19 20 21 20 19 18 18 18 19 21 21 21 22 22 23 24 24 25 26 26 25 26 27 28 28 28 29 29 29 30 30 30 30 30 30 29 28
16 14 13 16 16 15 15 16 17 19 19 19 19 21 19 18 19 19 19 19 20 21 22 22 23 23 24 24 25 25 25 25 25 25 25 27 29 29 30 29 29 30 30 30 31 30 30 29 29
13 14 15 16 16 14 14 17 18 19 21 20 20 19 19 18 19 20 20 21 21 20 21 22 23 24 25 26 25 25 25 25 25 26 27 28 29 29 30 29 29 30 30 30 30 29 29 29 29
13 15 15 15 14 15 16 17 18 21 22 20 20 20 18 18 20 21 22 22 21 21 22 23 24 24 24 24 25 25 25 26 27 28 29 29 29 30 30 31 30 30 30 30 31 30 30 30 30
13 14 13 14 15 18 18 19 20 21 20 19 19 19 18 19 20 21 22 23 23 23 23 23 23 23 23 24 25 26 26 27 28 28 29 29 30 30 31 31 31 31 31 31 31 30 31 31 30
13 13 13 15 18 18 17 19 20 20 20 20 20 18 18 20 20 21 21 22 23 23 22 23 23 23 24 24 25 25 26 27 28 29 30 30 30 31 31 31 31 31 31 31 31 31 31 31 31
12 13 15 16 15 15 16 18 19 17 17 19 19 19 20 22 22 22 22 22 23 22 22 23 24 24 25 25 26 26 28 29 29 30 31 31 31 31 31 30 30 30 29 29 29 30 30 30 30
12 13 14 15 15 16 16 16 16 18 18 18 18 19 22 23 23 22 22 23 22 23 23 24 25 25 25 25 26 27 28 29 30 30 31 31 30 30 29 29 29 28 28 28 28 28 28 28 28
13 13 14 16 15 15 16 17 18 16 18 18 19 21 21 22 22 23 23 23 23 23 23 24 24 25 25 26 26 26 27 28 28 28 29 29 28 28 27 27 27 28 28 28 28 28 27 28 28
14 14 15 16 16 16 17 19 18 18 20 20 18 19 21 22 23 24 24 24 23 24 24 25 25 25 26 26 26 27 28 28 28 28 28 28 28 27 27 26 26 26 26 26 26 26 26 26 26
14 14 15 17 18 18 19 22 22 22 21 21 21 20 20 21 22 23 24 24 24 25 25 25 25 26 26 26 26 26 27 27 26 26 26 26 26 25 25 24 24 24 24 24 24 24 24 24 25
Wind_Direction
226 226 222 214 201 195 198 232 245 248 246 247 248 248 249 256 261 263 271 271 272 273 275 268 262 258 257 261 263 262 261 258 256 256 258 258 257 260 264 268 268 273 279 282 284 286 287 290 294
223 224 221 213 199 175 228 237 244 253 256 256 251 253 255 257 262 263 266 273 275 276 275 272 266 262 265 267 268 268 265 262 261 260 261 262 262 263 266 266 267 272 277 281 283 284 284 284 286
222 221 221 212 199 189 230 233 239 252 258 257 255 255 259 261 261 261 264 272 278 281 278 275 272 273 276 275 272 270 268 265 262 261 261 262 262 263 265 267 269 272 275 278 279 279 280 281 282
220 218 216 214 201 219 231 234 241 255 257 255 256 255 255 259 261 260 263 271 277 280 279 276 277 279 279 277 273 271 269 266 264 263 262 262 262 263 266 270 271 273 276 277 278 279 278 278 279
219 218 213 208 209 230 239 244 248 256 256 258 257 256 258 259 262 264 265 272 277 281 280 278 278 280 280 277 273 270 269 269 267 265 265 264 263 264 267 270 272 272 274 275 276 278 278 279 278
218 215 214 205 217 236 244 249 251 253 255 260 261 263 267 265 267 269 270 275 276 279 278 276 277 277 277 275 271 269 266 268 268 266 266 266 266 267 268 270 271 271 273 273 274 277 277 277 276
222 213 211 211 230 242 249 254 256 253 246 255 261 262 266 268 269 271 274 277 276 277 279 280 279 276 275 273 271 267 265 266 267 266 267 268 266 267 269 271 272 271 272 273 275 276 277 277 275
223 214 210 213 232 246 251 254 254 251 252 249 256 262 265 268 271 272 276 278 279 279 280 282 281 281 279 276 271 268 266 266 266 266 266 267 267 268 270 272 272 272 272 273 274 275 277 277 277
220 218 210 213 232 246 251 254 256 253 249 251 255 263 267 267 271 274 276 278 280 282 283 282 285 287 284 280 276 271 267 264 264 265 266 266 268 269 269 271 273 273 274 274 275 276 276 276 276
216 217 215 221 233 243 250 252 252 253 252 254 257 263 266 266 272 275 276 278 280 281 282 283 285 284 283 280 280 276 272 267 264 264 269 271 271 271 272 273 273 274 275 276 277 277 276 276 276
212 214 217 232 232 237 242 249 251 256 250 255 260 264 269 271 273 273 274 278 280 278 280 281 281 281 282 282 280 275 271 269 269 270 273 274 274 273 274 276 276 275 275 277 277 277 276 277 277
214 215 222 233 236 235 240 248 250 252 248 251 259 261 270 271 273 274 276 277 279 279 282 282 281 282 283 279 278 276 275 274 272 274 277 278 278 278 277 278 277 277 277 278 277 276 276 276 274
219 221 226 232 238 241 240 239 247 253 249 255 264 264 267 271 273 274 276 276 277 278 282 284 285 287 288 285 283 280 276 274 275 276 278 278 279 279 278 278 279 278 279 280 280 277 276 277 277
222 226 231 236 239 243 241 242 247 252 256 262 268 268 270 271 272 274 279 278 280 282 283 285 285 289 289 285 284 283 278 277 276 277 277 276 277 277 278 280 280 280 280 280 279 279 278 277 278
227 232 232 234 239 241 246 248 251 256 260 264 266 269 269 274 272 275 280 280 280 281 282 284 286 289 288 285 285 284 281 277 276 278 279 278 279 279 279 279 280 281 281 281 280 281 279 278 279
229 232 234 237 236 241 244 247 249 253 260 264 265 269 271 270 273 278 279 279 280 282 282 284 285 286 287 287 285 282 279 278 279 278 280 279 279 279 280 281 282 281 281 282 282 282 280 279 279
223 222 229 239 247 247 245 247 247 253 257 264 267 269 272 273 274 277 279 282 283 283 283 283 284 286 287 286 285 281 278 280 281 279 279 280 280 279 280 281 281 282 283 283 283 282 280 280 279
216 216 224 234 245 249 250 250 254 260 262 265 271 273 276 277 275 274 278 282 284 285 285 286 286 287 287 287 287 284 282 282 281 281 281 282 280 281 281 282 281 282 283 283 283 282 280 280 278
215 215 220 233 242 246 253 255 258 262 267 271 274 276 277 280 277 274 278 280 282 284 286 285 286 287 288 289 289 287 285 284 280 281 282 283 281 280 281 282 281 282 282 282 282 282 281 280 277
210 215 216 223 236 243 249 258 264 268 269 273 276 279 280 279 279 281 282 283 284 285 286 288 287 287 289 291 291 289 289 289 287 287 286 283 283 282 281 282 281 281 281 281 280 280 280 279 278
207 218 223 231 237 249 254 257 259 264 270 274 278 281 280 279 279 282 284 288 288 287 287 288 288 287 289 290 292 291 289 289 289 289 288 286 284 283 282 282 281 280 281 282 281 279 278 278 278
215 217 226 232 238 244 256 262 259 262 268 271 275 275 278 280 282 284 285 288 289 289 288 289 290 290 289 290 291 291 290 291 290 289 288 289 287 285 283 282 281 281 281 281 280 277 276 276 276
212 224 233 237 242 243 251 261 265 266 264 267 272 271 277 282 284 287 288 289 290 291 292 291 293 294 293 292 292 293 292 292 292 292 290 289 289 287 284 283 282 283 282 280 279 279 277 276 275
222 227 233 236 242 248 252 256 258 263 264 268 269 273 279 286 288 287 288 289 290 292 292 292 294 294 293 294 294 294 294 294 294 295 292 291 290 288 285 284 282 283 283 282 281 279 279 277 276
222 228 235 242 247 250 254 257 262 262 271 276 278 279 284 287 288 287 289 290 290 291 290 291 294 296 297 298 297 297 297 297 296 296 293 291 291 289 285 284 284 283 283 282 281 280 279 278 276
230 233 243 253 258 266 265 259 267 263 270 281 277 277 280 283 285 287 290 292 293 293 293 294 296 297 298 299 299 299 299 298 296 295 294 292 291 291 287 286 284 284 284 282 282 281 279 277 276
243 249 252 263 269 272 271 267 268 272 276 274 274 276 278 282 282 286 291 293 296 295 294 296 298 299 300 299 299 299 300 300 298 295 293 292 292 292 289 287 285 284 283 283 283 281 279 277 276
244 248 252 256 264 273 276 270 260 267 278 282 281 281 282 284 285 286 289 292 295 297 297 297 299 301 302 300 300 301 302 302 301 298 297 295 296 294 291 289 286 285 284 285 284 282 280 279 278
242 243 249 254 256 266 274 278 281 281 283 284 288 284 285 286 285 285 288 292 295 297 298 299 300 301 302 302 302 302 303 302 301 300 299 298 298 296 294 293 291 289 288 288 286 284 282 281 279
242 244 248 253 255 258 269 278 282 286 285 283 288 289 287 289 289 288 289 291 293 296 298 299 300 301 303 303 303 304 303 303 303 303 302 299 299 299 296 293 293 292 292 291 289 287 286 284 281
Height
5893 5894 5896 5899 5901 5903 5904 5906 5906 5906 5906 5906 5906 5906 5905 5906 5907 5909 5906 5905 5906 5905 5905 5905 5905 5905 5905 5906 5905 5905 5905 5905 5905 5905 5905 5905 5904 5904 5904 5903 5903 5903 5902 5902 5902 5901 5901 5900 5900
5891 5893 5895 5898 5900 5901 5905 5905 5904 5905 5904 5905 5905 5904 5905 5905 5905 5905 5904 5904 5905 5904 5904 5904 5904 5904 5904 5904 5904 5904 5903 5903 5903 5903 5903 5903 5903 5903 5903 5902 5902 5901 5901 5901 5901 5901 5900 5900 5899
5889 5891 5894 5896 5898 5900 5903 5903 5902 5902 5903 5903 5903 5903 5903 5903 5903 5903 5903 5903 5903 5903 5903 5903 5903 5903 5902 5902 5902 5902 5902 5901 5901 5901 5901 5901 5901 5901 5901 5901 5900 5900 5900 5900 5900 5899 5899 5899 5898
5887 5890 5892 5896 5897 5899 5900 5900 5899 5900 5901 5901 5901 5901 5900 5901 5902 5902 5902 5902 5901 5901 5901 5901 5901 5901 5901 5900 5900 5900 5899 5899 5899 5899 5899 5899 5899 5899 5899 5899 5898 5898 5898 5898 5898 5898 5897 5897 5897
5885 5888 5891 5893 5896 5897 5898 5898 5896 5898 5898 5898 5899 5898 5897 5899 5900 5900 5900 5900 5900 5900 5899 5899 5899 5899 5898 5898 5898 5897 5897 5897 5897 5897 5897 5897 5897 5896 5896 5896 5896 5896 5896 5896 5896 5896 5896 5895 5895
5883 5886 5889 5891 5894 5895 5896 5895 5895 5896 5897 5896 5896 5895 5895 5897 5898 5898 5898 5898 5897 5897 5897 5897 5896 5896 5896 5895 5895 5895 5895 5894 5894 5894 5894 5894 5894 5894 5893 5894 5894 5894 5894 5894 5894 5893 5893 5893 5893
5881 5883 5886 5890 5893 5893 5894 5892 5892 5893 5893 5895 5894 5893 5893 5894 5895 5895 5895 5895 5895 5895 5894 5894 5893 5893 5892 5892 5891 5891 5891 5891 5891 5891 5891 5891 5891 5891 5891 5891 5891 5891 5891 5891 5891 5891 5890 5890 5890
5877 5880 5883 5887 5890 5891 5890 5889 5889 5890 5891 5891 5890 5890 5890 5892 5893 5893 5893 5892 5892 5892 5891 5891 5891 5890 5889 5888 5888 5888 5888 5888 5888 5888 5888 5888 5887 5888 5887 5887 5887 5887 5888 5888 5888 5887 5887 5887 5887
5875 5879 5881 5885 5888 5887 5885 5885 5886 5887 5888 5888 5888 5888 5888 5889 5890 5890 5890 5889 5889 5889 5888 5887 5887 5887 5886 5885 5884 5884 5884 5884 5884 5884 5884 5884 5884 5884 5884 5884 5884 5884 5884 5884 5884 5884 5884 5884 5883
5872 5876 5879 5882 5884 5883 5881 5882 5883 5883 5885 5884 5885 5884 5886 5886 5886 5887 5887 5886 5886 5885 5885 5884 5884 5883 5882 5881 5881 5881 5881 5880 5880 5880 5880 5880 5880 5880 5880 5880 5880 5880 5880 5880 5880 5880 5880 5880 5880
5870 5873 5875 5877 5878 5878 5878 5879 5879 5880 5880 5881 5881 5883 5884 5884 5884 5884 5884 5883 5882 5881 5881 5881 5880 5880 5879 5878 5878 5877 5877 5876 5875 5875 5876 5876 5876 5876 5876 5876 5876 5876 5876 5876 5876 5876 5876 5876 5876
5866 5869 5870 5871 5873 5874 5875 5876 5876 5877 5876 5875 5875 5878 5880 5881 5881 5881 5881 5880 5879 5878 5877 5877 5877 5876 5876 5875 5874 5874 5873 5872 5872 5872 5872 5872 5871 5871 5871 5871 5870 5871 5871 5871 5871 5871 5871 5871 5870
5863 5865 5866 5868 5869 5869 5870 5872 5871 5872 5873 5872 5872 5875 5877 5878 5878 5877 5877 5876 5875 5874 5874 5874 5873 5873 5872 5871 5870 5870 5869 5868 5868 5868 5867 5867 5867 5867 5867 5867 5866 5866 5866 5867 5866 5866 5867 5866 5865
5859 5861 5862 5864 5866 5867 5866 5868 5868 5869 5870 5870 5871 5872 5873 5874 5874 5874 5873 5873 5872 5872 5871 5871 5870 5869 5868 5868 5867 5866 5864 5863 5864 5864 5863 5863 5862 5862 5862 5862 5861 5862 5862 5862 5861 5861 5861 5860 5860
5856 5858 5860 5862 5863 5865 5865 5865 5865 5866 5868 5868 5869 5869 5869 5869 5870 5870 5870 5869 5868 5868 5867 5867 5867 5866 5865 5864 5863 5861 5860 5859 5858 5859 5859 5858 5857 5858 5857 5857 5856 5856 5856 5856 5856 5856 5855 5855 5855
5853 5855 5857 5859 5860 5861 5865 5864 5862 5863 5865 5865 5865 5866 5866 5866 5865 5866 5866 5866 5865 5864 5864 5863 5863 5862 5861 5860 5858 5857 5856 5855 5855 5855 5854 5853 5853 5852 5852 5852 5851 5850 5850 5850 5850 5850 5849 5849 5849
5851 5853 5855 5857 5858 5860 5861 5861 5859 5860 5862 5862 5862 5862 5863 5863 5863 5863 5863 5863 5862 5861 5860 5859 5859 5858 5857 5856 5854 5853 5851 5851 5851 5849 5848 5847 5847 5846 5846 5846 5845 5844 5844 5844 5844 5844 5843 5843 5843
5850 5852 5855 5856 5856 5858 5859 5859 5859 5858 5859 5859 5858 5858 5859 5860 5860 5860 5859 5859 5858 5857 5856 5856 5855 5854 5853 5852 5850 5848 5847 5846 5846 5845 5842 5842 5842 5841 5840 5840 5839 5839 5838 5838 5837 5837 5836 5836 5836
5849 5852 5854 5855 5855 5856 5857 5856 5857 5857 5856 5857 5856 5856 5857 5857 5856 5855 5855 5855 5854 5854 5853 5852 5851 5850 5849 5847 5845 5844 5842 5841 5840 5839 5838 5837 5836 5835 5834 5834 5833 5832 5832 5831 5831 5830 5830 5830 5829
5848 5849 5852 5853 5853 5854 5854 5854 5854 5854 5854 5854 5853 5853 5853 5853 5852 5851 5851 5850 5850 5850 5849 5848 5847 5846 5844 5842 5840 5838 5837 5835 5834 5833 5832 5831 5830 5829 5828 5827 5826 5825 5825 5824 5824 5823 5823 5822 5822
5845 5848 5850 5851 5851 5851 5852 5853 5852 5851 5851 5851 5851 5849 5848 5848 5848 5848 5847 5846 5846 5845 5845 5843 5842 5841 5839 5838 5836 5834 5832 5830 5829 5828 5826 5825 5824 5822 5821 5820 5819 5818 5818 5817 5816 5816 5815 5815 5815
5843 5846 5847 5849 5850 5850 5851 5851 5850 5848 5847 5847 5847 5844 5844 5845 5845 5844 5844 5843 5842 5841 5840 5839 5838 5836 5834 5833 5831 5829 5827 5825 5823 5822 5820 5819 5817 5815 5814 5813 5811 5811 5810 5810 5809 5808 5807 5807 5807
5842 5844 5844 5845 5847 5848 5848 5848 5848 5846 5844 5843 5843 5841 5841 5841 5841 5840 5840 5839 5838 5837 5835 5834 5832 5831 5829 5827 5825 5823 5821 5819 5818 5816 5814 5812 5810 5808 5807 5806 5804 5803 5802 5802 5801 5800 5799 5799 5798
5839 5841 5842 5843 5844 5845 5845 5845 5844 5841 5840 5840 5839 5838 5837 5837 5837 5836 5835 5834 5833 5832 5831 5829 5828 5826 5824 5821 5819 5817 5815 5813 5811 5809 5807 5805 5803 5801 5800 5798 5797 5795 5794 5793 5792 5792 5791 5790 5790
5837 5839 5840 5840 5840 5840 5841 5840 5839 5837 5837 5836 5834 5834 5833 5833 5833 5831 5830 5829 5829 5828 5826 5824 5823 5820 5818 5816 5814 5811 5809 5807 5805 5803 5800 5798 5796 5794 5792 5790 5789 5788 5786 5785 5784 5784 5783 5782 5782
5834 5837 5838 5837 5836 5836 5836 5835 5835 5831 5832 5832 5830 5830 5830 5830 5830 5828 5827 5826 5825 5823 5821 5819 5817 5815 5813 5810 5808 5805 5803 5800 5798 5795 5793 5791 5789 5787 5785 5783 5781 5780 5778 5777 5776 5775 5775 5774 5774
5833 5834 5835 5835 5833 5832 5832 5832 5829 5827 5828 5828 5828 5828 5828 5827 5825 5824 5823 5822 5820 5818 5816 5814 5812 5809 5807 5804 5802 5799 5796 5793 5791 5788 5786 5784 5781 5779 5777 5776 5774 5772 5771 5770 5768 5767 5766 5766 5766
5831 5832 5832 5832 5831 5830 5830 5827 5825 5824 5824 5823 5823 5824 5823 5823 5821 5820 5819 5817 5815 5813 5811 5809 5806 5803 5801 5798 5795 5793 5789 5786 5783 5781 5778 5776 5774 5772 5770 5768 5766 5765 5763 5762 5761 5760 5759 5758 5758
5829 5829 5829 5829 5828 5828 5827 5826 5821 5821 5821 5821 5820 5820 5819 5818 5817 5816 5814 5812 5810 5808 5806 5803 5801 5798 5795 5792 5789 5786 5783 5780 5777 5774 5771 5769 5767 5765 5763 5761 5759 5757 5756 5755 5753 5752 5751 5751 5750
5825 5825 5826 5826 5825 5825 5824 5824 5819 5819 5818 5817 5816 5816 5815 5814 5812 5810 5809 5807 5805 5803 5801 5798 5796 5793 5790 5786 5783 5780 5777 5773 5770 5768 5765 5763 5760 5758 5756 5754 5752 5751 5749 5748 5746 5745 5744 5744 5743